Eastmain River Airport
CZEM : now visible

Airfield :











YOU CAN JOIN US ON...

 
LOGIN :

Register | Disclaimer

   EN    FR    IT 

 









Legend :    VFR   Marginal VFR   IFR   Intensive IFR   Very Intensive IFR
Visi :
Ceiling :
>= 8 km
>= 3000ft
5 to 8 km
1000 to 3000 ft
1500m to 5 km
500 to 1000 ft
800 to 1500m
200 to 500 ft
< 800m
< 200 ft
Symbols :   Thunderstorms  Fog  Heavy snow  Heavy precipitations  Wind > 20 kt






- Airport Elevation : 24 ft
- IATA code : ZEM


CZEM - Eastmain River

CURRENT METAR :
  • 232000Z 29008KT 12SM FEW035 24/13 A3005 RMK SC1 SMOKE/LAST STFD OBS/NEXT 251400 UTC SLP178 DENSITY ALT 1000FT

EXPIRED METARs :
  • 231900Z 28009KT 12SM FEW035 23/12 A3007 RMK SC1 SMOKE SLP184 DENSITY ALT 900FT
  • 231800Z 27009KT 12SM FEW030 23/13 A3009 RMK SC1 SLP190 DENSITY ALT 800FT

TAF N/A
CZUL FIR / North America



MET'MAP, your aeronautical weather chart ! - Copyright ORBIFLY December 2007 - Disclaimer

ORBIFLY MET'MAP TEAM :

Programming & Development : Alexandra Zaïnal
Concept & original design : Baudouin d'Aumeries
Assistance for programming : Marc-Olivier Méhu
Technical & hardware support : Manuel Goepfert

Contact : metmap@orbifly.com




SOURCES & CREDITS :

   NOAA       Earth
Advisory